Theta_e
311 311 312 312 311 309 305 303 302 302 303 303 303 304 304 306 307 302 298 300 300 296 297 299 300 292 293 289 283 289 288 289 286 282 282 283 281 284 282 285 284 281 282 282 280 279 277 296 294 287 292 296 296 296
310 310 310 310 309 305 303 302 302 302 302 302 303 303 304 304 304 304 294 299 301 297 295 300 302 302 300 299 292 291 289 288 291 285 284 285 283 284 281 277 288 279 287 284 288 284 293 295 295 300 298 295 296 294
310 310 309 306 304 303 302 302 302 302 302 302 303 303 304 304 304 303 298 295 294 291 293 293 294 300 301 301 302 291 292 295 293 297 290 291 286 284 279 278 283 287 290 284 287 289 292 297 299 297 298 296 296 296
308 306 305 304 303 302 302 301 302 302 302 302 302 303 303 304 304 303 296 294 293 292 288 291 301 299 303 301 299 302 298 297 296 296 294 291 287 292 286 285 286 289 289 287 289 294 296 298 298 296 296 296 295 296
305 304 304 303 302 302 301 301 302 302 302 302 302 303 303 303 303 301 298 296 298 292 289 294 298 299 298 296 299 301 300 298 296 292 291 289 292 291 292 289 285 287 285 287 287 293 295 294 295 296 293 294 295 295
303 303 302 302 302 301 301 302 301 301 302 302 302 302 302 302 303 295 290 298 298 303 296 285 290 293 296 297 297 298 301 299 298 295 293 294 296 292 286 285 289 292 294 296 294 298 294 295 294 297 294 295 296 295
302 302 301 301 301 301 301 301 301 301 301 302 302 302 302 302 297 291 289 298 303 299 290 285 284 292 297 296 296 299 300 299 298 295 293 294 293 294 290 285 291 295 298 299 298 295 291 292 293 295 296 296 296 296
302 302 301 301 301 301 301 301 301 301 301 301 301 301 302 302 300 295 297 302 300 293 292 284 284 288 295 292 294 299 297 296 296 295 295 293 294 293 287 292 297 298 298 296 294 296 295 295 295 295 296 295 293 292
302 302 301 301 301 301 301 301 300 300 301 301 301 301 296 295 289 292 307 303 297 293 290 287 282 280 293 291 293 294 295 291 293 291 292 292 291 287 293 295 296 296 294 293 295 295 295 294 294 293 292 291 289 290
302 302 301 301 300 300 300 300 300 300 300 301 295 292 289 293 305 308 300 295 293 293 291 285 287 284 289 287 288 288 290 287 287 290 294 290 289 294 297 299 296 295 294 295 292 291 293 291 290 289 289 290 290 289
302 301 301 301 300 301 301 300 300 300 299 294 291 291 296 307 299 295 291 287 287 287 288 287 288 286 291 285 285 291 287 286 284 287 290 290 287 292 298 298 297 293 296 296 296 295 294 292 289 288 288 290 290 289
301 301 300 300 300 300 299 299 299 293 290 292 294 295 296 295 292 287 284 287 287 285 288 286 288 290 289 292 290 292 288 289 283 291 291 287 289 293 297 296 296 295 296 296 296 294 293 291 290 289 289 289 289 289
301 301 300 300 300 300 299 299 299 299 297 292 291 291 288 287 277 282 281 283 283 289 291 292 291 292 293 295 294 288 286 283 290 289 288 287 292 296 296 296 295 297 297 296 294 294 293 290 290 291 289 291 292 291
301 300 300 300 300 299 299 299 299 297 294 288 287 279 282 281 284 283 284 284 292 294 293 291 292 295 297 293 292 286 289 288 285 283 282 287 294 295 297 296 295 295 295 294 293 292 291 289 289 291 292 293 293 292
300 300 300 300 300 299 299 299 300 294 289 287 287 276 283 286 287 293 291 292 294 295 294 294 296 295 290 289 290 287 285 282 281 284 290 294 293 296 295 296 295 295 295 293 293 291 289 289 290 292 293 294 294 294
299 298 296 299 299 300 299 298 295 293 291 288 287 284 285 286 284 287 291 290 296 295 295 294 291 287 286 285 285 284 283 282 283 289 295 293 297 296 295 296 296 296 295 293 293 292 290 291 292 293 294 294 294 294
298 291 298 300 300 300 299 293 291 289 288 287 284 287 287 286 286 287 288 288 292 291 289 291 287 286 288 285 285 287 281 286 289 294 294 297 297 296 296 296 296 295 294 294 293 292 291 293 294 295 293 294 294 295
293 294 298 298 296 295 294 294 289 288 286 286 284 286 287 286 285 286 288 291 290 289 290 289 288 283 282 283 285 289 290 291 292 295 293 299 299 297 297 296 296 296 295 294 293 292 292 292 292 294 295 295 295 295
296 296 296 295 294 291 289 289 290 283 285 287 287 287 286 285 287 288 288 290 292 293 291 289 285 283 284 288 288 289 291 293 293 294 296 299 299 296 297 296 296 296 294 293 292 291 292 293 294 296 295 295 294 294
297 298 296 295 294 289 287 287 292 287 284 286 286 286 287 287 290 290 290 291 290 289 287 286 285 287 288 289 290 290 292 294 294 292 294 297 297 297 296 295 295 296 295 294 293 292 293 294 296 296 296 296 294 293
295 295 295 295 291 289 286 286 287 287 288 285 286 287 286 288 287 288 288 292 288 287 285 287 287 289 290 293 291 292 291 291 294 295 297 294 297 296 296 296 297 297 295 293 292 291 292 293 295 296 297 296 295 295
294 297 291 292 288 289 286 288 285 286 283 284 284 284 283 282 283 285 288 286 286 287 288 288 289 290 291 291 291 292 293 295 297 297 296 297 295 295 295 296 296 296 295 294 293 292 293 294 296 296 296 297 295 294
295 294 291 289 285 285 283 288 284 284 281 283 285 285 285 284 285 288 284 286 288 290 291 291 292 292 292 293 293 295 296 297 298 298 298 298 298 297 296 297 297 296 295 294 295 294 294 293 295 296 297 297 297 296
296 289 286 286 285 281 286 283 286 286 285 283 283 284 285 287 292 289 285 287 289 292 290 291 292 291 291 292 292 294 295 300 300 299 300 298 297 296 296 296 297 298 298 296 295 295 295 295 294 296 296 296 296 296
284 281 281 274 285 283 283 283 283 284 283 284 284 284 287 291 286 286 286 289 292 291 292 294 292 292 291 292 293 295 298 301 300 298 299 299 297 294 296 297 297 298 299 296 295 294 294 295 296 296 295 295 295 295
278 282 277 282 283 281 283 283 284 284 285 284 286 289 289 286 284 283 287 290 291 294 297 295 293 293 293 295 296 299 300 303 303 299 296 297 297 297 294 294 294 296 300 299 296 295 295 295 295 295 295 294 290 295
273 280 283 286 285 287 284 287 288 285 283 284 286 286 286 282 282 287 293 296 297 298 300 301 300 299 297 297 303 304 305 305 302 301 300 299 300 300 298 295 294 297 300 300 300 297 296 295 295 296 295 296 297 296
283 284 283 286 287 289 285 286 284 284 286 288 287 284 284 284 284 291 295 299 300 301 301 304 306 304 304 304 304 304 305 304 304 304 303 302 302 302 300 299 300 294 300 301 301 300 298 297 296 296 296 296 296 298
282 284 285 283 286 287 287 285 286 288 290 287 284 284 285 288 291 293 297 302 304 304 302 303 303 304 303 303 303 304 303 302 299 297 297 295 294 298 300 300 301 300 299 298 290 296 300 299 298 297 297 298 298 299
283 286 284 285 285 285 288 290 288 290 292 290 288 287 288 292 298 302 301 302 302 302 303 304 303 302 300 299 297 299 301 301 299 299 296 295 297 300 300 301 301 301 300 298 296 293 287 294 292 298 298 298 298 298
287 288 287 287 287 291 292 293 292 292 292 291 290 289 292 295 298 301 301 302 302 302 301 300 299 300 298 297 296 296 295 297 299 299 300 300 300 301 303 302 302 302 301 299 297 297 296 296 296 297 297 297 297 296
286 286 287 286 288 291 291 289 289 289 290 291 292 295 295 294 292 296 301 300 298 297 292 296 296 296 298 298 297 296 291 295 295 296 297 297 298 299 299 303 302 302 301 299 299 297 297 297 296 297 298 297 297 298
290 290 290 289 288 286 289 288 287 288 290 292 292 293 293 292 290 296 301 302 299 296 296 296 297 298 298 298 297 296 294 294 288 284 285 285 286 290 298 301 303 303 302 299 298 299 297 297 296 296 296 297 297 297
Wind_Speed
11 12 13 12 13 10 7 4 3 4 6 8 9 10 10 12 13 6 6 2 0 3 9 6 4 2 5 2 4 5 6 4 4 5 2 3 2 3 3 4 7 4 4 2 3 5 6 5 17 2 5 4 6 11
12 13 13 12 10 8 4 4 4 5 6 7 8 9 9 10 10 8 3 4 3 4 9 4 16 18 13 18 4 3 5 3 3 2 1 1 4 4 2 4 4 4 3 4 5 7 12 10 6 8 3 8 10 10
11 10 7 12 11 8 7 6 5 5 6 7 9 10 10 10 9 6 5 3 3 3 7 2 6 7 5 7 10 5 3 6 3 4 4 2 6 1 3 6 6 6 3 5 8 5 9 13 15 4 8 12 10 10
7 11 11 10 10 8 6 5 5 6 7 8 10 11 12 12 11 10 3 2 1 3 4 8 4 11 11 11 9 14 7 3 3 3 3 3 3 5 4 7 11 9 4 6 9 13 14 11 8 9 13 9 13 16
8 9 8 8 7 6 6 5 6 6 7 9 11 11 12 13 14 9 6 5 7 4 4 7 14 16 6 5 9 9 9 6 3 2 3 4 3 3 3 4 4 4 7 1 8 16 11 10 11 12 7 15 17 17
7 6 7 7 7 6 5 6 7 8 9 10 12 12 12 12 12 3 5 2 4 4 3 5 6 8 7 5 5 7 10 4 4 4 3 3 3 3 3 4 7 7 5 5 12 8 10 13 8 5 14 17 17 17
7 7 6 6 6 6 6 7 8 9 10 12 13 13 13 12 2 3 5 3 5 4 1 5 6 7 5 4 1 3 3 3 4 3 3 3 4 6 3 5 7 13 11 9 5 10 16 9 12 14 15 15 18 14
9 8 8 7 7 6 7 8 9 10 12 13 14 15 15 13 12 8 9 21 6 1 1 4 7 6 3 2 2 3 4 2 2 3 2 3 2 3 5 5 9 8 11 9 10 11 13 12 14 14 14 13 13 12
9 9 8 8 8 7 8 8 10 12 13 15 16 20 5 3 3 5 3 9 4 5 3 3 3 5 5 3 2 3 3 3 0 3 3 2 3 5 4 10 11 10 10 12 12 12 13 14 12 14 12 12 10 8
9 9 8 8 8 8 9 8 10 13 16 17 4 1 3 5 9 2 2 2 2 4 3 4 2 5 4 3 4 3 1 3 2 4 3 3 3 3 10 9 5 8 8 9 14 13 14 13 13 11 11 10 8 4
10 9 9 9 9 11 7 7 9 13 11 1 1 2 3 3 1 2 4 4 4 4 4 5 7 5 3 3 4 2 2 2 3 4 3 2 2 4 5 4 5 7 7 9 9 11 12 12 10 10 9 7 6 4
11 9 9 8 9 5 4 6 6 3 1 3 6 6 3 2 3 4 5 3 5 6 4 4 6 6 4 3 2 1 2 2 6 4 3 2 4 5 4 5 8 7 7 9 8 12 12 10 9 8 6 6 5 3
11 10 9 9 8 7 7 6 6 7 6 3 1 4 4 5 1 5 5 4 3 4 2 2 2 3 2 2 1 2 3 6 1 2 1 4 3 4 3 5 7 7 8 8 11 11 9 10 10 7 4 5 5 4
11 10 9 9 8 7 8 6 6 5 2 2 3 6 5 5 6 5 4 3 5 2 1 2 2 3 2 4 3 4 6 1 3 0 3 3 4 3 3 5 6 7 8 8 11 10 9 9 9 5 4 4 6 7
8 9 11 10 9 9 8 8 6 2 2 4 4 6 7 7 1 4 3 4 6 1 2 1 2 3 4 4 5 2 3 1 2 3 2 5 6 3 4 5 5 6 7 8 9 8 8 8 9 5 3 4 6 9
5 2 4 8 10 10 10 5 2 2 3 4 6 4 3 1 4 4 1 3 4 3 2 3 4 4 4 3 1 2 3 1 4 3 3 4 4 3 4 4 4 5 5 7 7 7 7 8 10 9 7 9 8 8
7 2 3 4 10 6 5 2 3 5 5 5 5 5 8 4 6 3 2 4 3 1 1 3 5 1 3 2 4 1 4 4 5 4 2 3 4 2 3 4 4 4 5 6 7 7 6 7 8 5 8 9 9 9
2 1 6 7 4 4 2 2 2 4 7 5 4 5 4 3 3 2 3 5 3 2 1 3 4 4 1 2 2 3 3 3 3 4 3 3 1 2 3 2 4 5 5 6 7 7 6 8 9 6 10 9 9 9
4 5 6 4 3 2 3 5 4 4 6 4 5 4 4 4 4 4 3 5 5 4 2 3 3 3 2 2 3 2 3 3 3 3 1 3 3 3 3 3 3 4 5 6 6 5 4 7 7 7 7 4 5 6
6 7 8 7 4 2 4 3 4 4 4 4 3 4 4 6 6 7 7 7 5 3 4 4 4 3 4 3 3 3 4 2 1 1 2 2 3 3 3 2 2 3 3 4 5 6 4 6 7 7 6 4 6 5
6 5 7 4 3 4 4 3 4 5 4 4 3 2 4 3 4 6 8 8 5 4 4 4 4 5 5 4 4 3 4 2 3 4 4 3 3 3 3 3 3 2 3 3 3 4 5 5 5 6 5 6 7 1
1 11 3 4 3 4 4 5 4 4 3 4 5 4 4 4 4 4 3 3 4 5 5 5 4 4 3 5 6 5 4 4 3 2 6 8 3 3 3 3 3 3 3 3 3 4 3 3 5 6 6 5 9 5
2 3 2 4 3 4 7 3 3 4 3 4 2 2 3 3 5 1 2 4 5 5 6 5 7 6 7 6 3 0 2 2 4 4 4 3 4 4 4 4 4 4 3 3 3 3 3 4 6 6 6 6 5 5
3 3 3 4 6 5 4 4 3 3 3 2 4 5 5 2 3 2 3 3 4 3 3 7 4 3 1 3 2 3 2 3 4 4 4 5 4 3 4 4 4 4 5 4 3 3 4 3 4 5 7 8 8 7
2 5 3 5 4 4 4 4 2 3 4 5 3 4 3 4 2 3 3 3 5 3 2 2 5 5 5 3 2 2 2 5 5 5 2 4 4 4 4 5 4 6 6 5 4 5 5 4 3 5 6 8 10 10
4 4 5 4 2 3 3 3 1 3 2 3 3 3 2 1 2 4 3 3 3 3 4 2 4 3 2 4 3 2 3 4 6 5 3 4 5 6 5 6 4 4 5 6 6 6 6 6 4 3 5 6 7 9
3 5 5 4 3 3 5 2 1 2 3 3 2 3 3 2 3 2 3 3 2 3 4 5 2 4 4 3 3 3 3 6 6 5 4 4 4 5 6 5 5 4 8 7 7 8 7 7 7 5 4 4 5 5
4 4 4 4 3 2 3 1 2 2 2 2 2 2 4 2 3 2 3 4 6 6 2 4 6 5 6 5 3 4 5 6 7 8 6 5 3 4 5 4 5 12 8 8 8 7 7 6 7 5 2 4 4 4
4 4 3 9 5 1 1 1 3 2 2 1 2 2 2 2 3 3 5 4 3 1 8 8 7 9 9 8 8 8 5 5 9 10 9 5 4 3 4 5 6 5 6 6 7 8 10 8 7 6 5 2 2 3
5 4 3 4 3 2 3 3 2 3 3 2 1 2 3 3 3 4 6 7 8 7 5 7 6 10 6 9 9 12 9 8 6 5 5 4 4 4 4 5 6 6 6 6 6 5 6 8 5 5 5 4 3 2
3 1 3 4 3 1 1 0 2 2 2 3 4 2 2 2 4 6 6 5 5 4 4 8 9 6 7 7 6 7 7 5 6 8 6 5 4 4 4 5 5 6 7 7 6 6 7 7 7 9 9 8 8 7
3 4 2 3 1 2 2 1 2 3 4 3 4 3 3 2 5 8 8 4 7 11 9 8 9 8 7 7 8 7 7 4 5 5 7 4 4 5 4 3 5 6 7 7 7 6 7 7 5 7 8 11 10 12
3 3 3 1 1 0 1 2 3 3 3 2 3 2 6 4 5 2 4 5 6 5 7 8 8 6 8 8 8 6 6 4 5 5 5 5 4 5 4 4 3 5 8 6 6 6 8 8 6 6 6 6 8 7
Wind_Direction
255 250 244 233 216 201 196 224 275 312 325 336 338 338 338 344 351 13 273 257 253 268 284 245 217 209 301 225 193 270 5 336 19 31 32 313 305 283 297 271 290 274 290 307 306 251 286 360 349 352 262 313 300 294
254 249 245 233 184 157 161 235 263 292 307 325 335 338 336 336 338 347 291 338 331 213 251 285 275 269 234 242 171 229 202 192 213 100 35 341 311 303 230 283 281 295 142 266 241 246 291 329 257 298 259 282 302 294
254 249 212 138 142 162 200 215 240 273 296 313 316 318 326 328 328 325 287 289 338 292 287 287 256 272 195 201 185 165 267 200 227 171 173 215 252 165 235 246 259 275 282 235 327 290 295 302 302 254 311 309 293 291
133 133 140 152 170 192 205 224 251 273 296 306 309 312 318 319 319 313 255 225 59 259 275 279 319 302 282 276 209 201 185 65 121 124 177 205 238 197 245 252 271 256 315 253 256 279 303 284 330 322 304 302 309 305
143 153 163 178 184 198 206 238 265 282 295 302 304 308 315 320 318 304 249 213 206 160 271 290 305 274 261 242 233 189 182 181 159 147 180 219 221 248 259 257 255 197 219 245 292 305 287 309 315 302 308 317 306 301
169 174 179 194 199 209 234 254 271 288 299 301 304 309 313 317 327 332 332 30 190 219 255 314 285 285 292 239 274 188 200 141 157 158 211 222 257 163 266 262 256 262 284 269 292 337 301 297 296 313 314 309 301 301
195 198 208 214 225 239 249 263 283 294 295 300 303 305 305 303 279 233 208 234 299 357 13 303 289 274 289 257 280 118 117 171 144 188 214 208 218 179 240 260 275 298 309 310 332 326 319 326 313 315 305 304 305 303
213 213 220 228 239 251 264 276 287 295 300 301 301 301 296 288 291 261 248 245 210 248 150 260 271 322 259 326 303 173 148 136 197 204 206 204 209 203 253 269 293 303 310 319 326 313 291 300 305 307 311 311 314 309
218 222 229 233 245 256 274 286 295 299 302 301 302 299 304 158 221 240 245 95 131 146 245 230 209 264 341 333 297 356 136 168 210 213 217 157 227 229 306 311 307 326 331 315 313 307 307 304 313 317 327 314 306 310
219 227 233 244 255 262 265 281 300 307 302 298 298 288 266 219 225 275 11 79 141 237 233 240 231 262 38 351 300 349 27 207 214 230 153 215 242 267 265 278 309 320 309 320 319 319 320 328 319 330 317 310 313 338
226 229 239 242 253 265 259 291 311 326 315 90 246 242 296 281 69 212 221 181 192 232 216 233 202 227 283 164 235 202 265 272 273 232 204 211 258 247 264 298 314 306 301 312 310 326 327 322 331 322 325 331 349 12
221 226 238 243 262 268 273 292 313 354 267 276 287 297 289 275 227 222 204 220 194 228 215 192 219 183 253 179 154 240 224 266 251 149 238 240 256 271 311 330 324 304 305 317 335 337 335 341 337 325 337 1 24 38
219 223 233 242 247 253 265 275 291 292 325 320 201 256 169 224 193 209 219 234 217 226 213 214 267 163 343 41 148 269 230 234 289 243 247 235 276 311 346 323 321 319 331 334 346 342 356 345 340 356 13 354 84 84
216 227 233 242 241 250 259 267 283 310 267 247 218 255 201 228 225 207 230 208 257 287 173 54 288 187 204 188 200 205 231 252 259 58 272 270 285 320 350 307 335 333 337 350 347 355 359 355 349 23 26 30 73 82
222 234 237 245 231 243 253 262 276 148 236 248 226 234 219 237 30 16 266 338 303 282 38 9 258 223 236 223 191 202 227 255 103 320 322 315 296 329 332 325 344 339 348 348 353 360 5 359 351 36 42 49 86 87
208 233 229 224 228 234 238 256 184 199 252 240 239 276 301 39 336 333 300 230 234 100 59 332 251 243 224 189 193 345 69 107 253 258 246 283 302 322 327 359 9 359 3 352 0 14 10 1 2 67 64 67 77 84
170 221 18 12 197 229 157 162 195 215 233 240 243 236 262 248 243 238 319 301 290 62 195 214 265 274 340 99 70 156 196 214 218 259 248 253 283 299 17 30 9 1 2 4 14 20 17 357 352 29 74 86 92 97
126 169 133 94 63 35 9 230 288 265 233 253 260 262 272 242 249 258 270 298 314 276 326 225 284 15 37 99 85 251 253 260 246 252 247 205 178 80 71 60 31 13 23 18 26 24 18 12 351 46 81 59 86 84
147 139 140 142 97 126 238 203 219 255 248 243 242 247 236 244 241 250 249 267 251 260 272 277 245 213 172 135 175 268 275 219 244 253 190 116 160 140 133 107 73 44 50 27 30 25 11 1 12 51 88 40 42 45
133 163 165 159 160 224 248 224 204 244 264 249 250 234 237 246 250 259 261 266 251 218 206 208 213 228 164 227 179 220 228 238 184 164 192 187 160 157 169 132 101 96 70 47 41 25 7 26 30 48 78 62 45 29
157 182 184 194 207 216 267 262 234 229 241 239 276 244 251 261 241 221 231 225 205 205 225 215 211 239 221 209 212 207 267 171 224 188 177 176 167 138 126 120 122 105 92 72 52 55 21 27 25 33 43 71 112 178
213 169 158 199 254 217 238 229 232 282 291 252 284 219 232 235 254 248 233 196 209 221 197 196 220 221 251 207 218 210 247 308 156 121 83 113 139 144 150 150 111 95 75 92 75 78 63 21 19 25 37 60 125 143
194 168 214 191 235 253 258 170 221 237 258 265 305 277 253 247 231 127 216 213 227 208 208 200 216 200 195 220 185 121 263 93 145 157 153 139 128 121 125 117 125 111 100 88 70 88 81 54 38 20 31 48 72 65
241 233 235 206 202 260 263 235 224 266 271 284 315 296 299 291 351 342 261 252 235 211 202 208 176 193 109 112 154 191 273 114 105 85 131 127 120 132 131 132 121 117 106 115 100 94 86 69 51 41 37 52 63 67
230 249 150 268 222 238 252 242 218 215 247 301 282 251 313 349 282 240 245 320 336 343 294 170 155 149 154 188 208 240 183 138 138 135 154 125 110 86 85 100 108 129 132 124 107 111 100 94 65 57 37 45 57 62
233 238 182 248 215 232 301 280 297 279 254 250 255 286 313 321 279 262 294 336 304 310 328 310 172 126 155 163 148 160 157 139 122 119 165 141 144 139 138 140 142 140 144 134 135 132 118 118 145 122 81 55 43 57
266 254 229 228 233 230 295 340 198 238 263 284 335 304 296 248 246 271 301 263 263 294 290 290 183 149 168 159 138 133 146 130 136 154 147 153 141 132 148 157 167 161 147 148 136 135 129 132 137 186 107 77 66 74
251 271 190 227 234 211 215 226 308 266 259 248 282 272 298 307 273 267 264 299 308 298 321 65 58 73 77 76 97 103 93 97 90 88 78 58 75 96 102 99 120 129 138 140 139 137 137 133 132 138 132 96 94 75
244 255 256 269 270 203 106 186 263 269 337 298 263 272 282 267 270 277 287 292 262 158 82 82 65 72 61 58 54 50 66 102 113 102 99 93 73 33 98 101 119 118 131 126 134 146 148 143 144 145 143 115 85 80
243 205 265 275 285 214 203 186 236 241 236 181 256 294 254 253 313 7 10 41 66 75 70 70 66 76 70 78 73 61 44 48 50 98 118 122 154 146 123 116 117 117 128 125 121 113 114 131 109 122 134 134 124 86
260 270 215 191 206 177 133 352 321 253 213 210 197 263 11 323 13 32 34 12 17 2 27 85 75 71 78 69 70 78 64 22 46 52 57 55 55 62 128 137 130 124 126 132 133 134 137 149 156 163 165 164 171 172
217 219 112 73 83 85 49 13 357 16 7 10 8 353 345 55 53 11 353 39 79 68 64 79 84 84 86 84 76 74 78 67 45 37 40 43 40 23 356 125 132 135 137 142 150 148 157 155 162 168 175 182 183 186
67 49 69 125 210 20 118 60 27 18 344 31 98 72 58 56 75 14 321 18 53 58 59 63 66 75 79 89 97 90 79 78 74 59 59 53 49 30 32 19 85 145 148 155 165 164 166 166 170 176 183 182 182 181